Location: Newark
(44.3681°N, 100.3364°W)
Time: 08:14:15
(UTC+00:00)

Explorer 7 - Pass Details

Date: 22 February 2020
Orbit: 485 x 679 km, 50.3° (Epoch: 06 April)

Event Time Altitude Azimuth Distance (km) Brightness Sun altitude
Rises 21:12:56 0° 280° (W) 2,894 10.9 27.2°
Reaches altitude 10° 21:15:27 10° 289° (WNW) 1,954 10.0 26.9°
Maximum altitude 21:19:36 37° 357° (N) 913 7.8 26.4°
Drops below altitude 10° 21:23:31 10° 66° (ENE) 1,837 9.1 26.0°
Sets 21:25:49 0° 75° (ENE) 2,697 9.9 25.7°
